Weather History for Campo, CA

Change the Weather History Date:

Saturday, January 26, 2013

  Actual Average Record
Temperature  
Mean Temperature 54 °F 49 °F  
Max Temperature 58 °F 63 °F 81 °F (2012)
Min Temperature 50 °F 35 °F 22 °F (2002)
Degree Days  
Heating Degree Days 11 16  
Month to date heating degree days 480 427  
Since 1 July heating degree days 1478 1533  
Cooling Degree Days 0 0  
Month to date cooling degree days 0 0  
Year to date cooling degree days 0 0  
Growing Degree Days 4 (Base 50)    
Moisture  
Dew Point 50 °F    
Average Humidity 90    
Maximum Humidity 100    
Minimum Humidity 80    
Precipitation  
Precipitation 0.14 in 0.10 in 1.12 in (1995)
Month to date precipitation 1.71 2.50  
Year to date precipitation 1.71 2.50  
Since 1 July precipitation 6.18  
Snow  
Snow 0.00 in - - ()
Month to date snowfall 0.0  
Year to date snowfall 0.0  
Since 1 July snowfall 0.0  
Snow Depth 0.00 in    
Sea Level Pressure  
Sea Level Pressure 29.88 in    
Wind  
Wind Speed 7 mph (SW)    
Max Wind Speed 17 mph    
Max Gust Speed 22 mph    
T = Trace of Precipitation, MM = Missing Value Source: NWS Daily Summary

Daily Weather History Graph

Daily Weather History Graph

Search for Another Location

Airport:

Trip Planner

Search our weather history database for the weather conditions in past years. The results will help you decide how hot, cold, wet, or windy it might be!

Date:

Astronomy

Jan. 26, 2013 Rise Set
Actual Time 6:43 AM PST 5:13 PM PST
Civil Twilight 6:17 AM PST 5:39 PM PST
Nautical Twilight 5:48 AM PST 6:09 PM PST
Astronomical Twilight 5:18 AM PST 6:38 PM PST
Moon 5:09 PM PST (1/26) 6:06 AM PST (1/26)
Length of Visible Light 11h 21m
Length of Day
10h 29m
Full, 100% of the Moon is Illuminated
Jan 26
Full
Jan 26
Full
Feb 3
Last Quarter
Feb 9
New
Feb 17
First Quarter

Hourly Weather History & Observations

Time (PST) Temp. Dew Point Humidity Pressure Visibility Wind Dir Wind Speed Gust Speed Precip Events Conditions
12:52 AM 51.1 °F 48.9 °F 92% 29.89 in - Calm Calm - 0.07 in   Unknown
1:52 AM 51.1 °F 48.9 °F 92% 29.86 in - North 3.5 mph - 0.02 in   Unknown
2:52 AM 51.1 °F 48.0 °F 89% 29.84 in - WSW 8.1 mph - 0.01 in   Unknown
3:52 AM 51.1 °F 48.9 °F 92% 29.84 in - SSW 6.9 mph - N/A   Unknown
4:52 AM 51.1 °F 50.0 °F 96% 29.84 in - Calm Calm - N/A   Unknown
5:52 AM 52.0 °F 50.0 °F 93% 29.85 in - WSW 3.5 mph - N/A   Unknown
6:52 AM 52.0 °F 50.0 °F 93% 29.85 in - Calm Calm - N/A   Unknown
7:52 AM 52.0 °F 51.1 °F 97% 29.86 in - Calm Calm - N/A   Unknown
8:52 AM 53.1 °F 51.1 °F 93% 29.88 in - SW 5.8 mph - N/A   Unknown
9:52 AM 53.1 °F 51.1 °F 93% 29.89 in - SW 8.1 mph - 0.01 in   Unknown
10:52 AM 54.0 °F 51.1 °F 90% 29.88 in - SW 9.2 mph - N/A   Unknown
11:52 AM 55.0 °F 52.0 °F 89% 29.86 in - SW 10.4 mph - N/A   Unknown
12:52 PM 57.0 °F 52.0 °F 83% 29.84 in - SW 10.4 mph - N/A   Unknown
1:52 PM 55.0 °F 52.0 °F 89% 29.85 in - SW 9.2 mph - N/A   Unknown
2:52 PM 55.0 °F 51.1 °F 86% 29.86 in - WSW 16.1 mph - 0.02 in   Unknown
3:52 PM 54.0 °F 51.1 °F 90% 29.86 in - SW 13.8 mph - N/A   Unknown
4:52 PM 53.1 °F 50.0 °F 89% 29.87 in - WSW 9.2 mph - N/A   Unknown
5:52 PM 52.0 °F 50.0 °F 93% 29.89 in - WSW 8.1 mph - 0.01 in   Unknown
6:52 PM 52.0 °F 50.0 °F 93% 29.91 in - SW 9.2 mph - N/A   Unknown
7:52 PM 51.1 °F 50.0 °F 96% 29.91 in - WSW 6.9 mph - N/A   Unknown
8:52 PM 51.1 °F 50.0 °F 96% 29.92 in - SW 4.6 mph - N/A   Unknown
9:52 PM 51.1 °F 48.9 °F 92% 29.93 in - SW 11.5 mph - N/A   Unknown
10:52 PM 50.0 °F 48.9 °F 96% 29.94 in - SSW 13.8 mph - N/A   Unknown
11:52 PM 51.1 °F 48.9 °F 92% 29.94 in - WSW 4.6 mph - N/A   Unknown